(229194) = 2004 TD281

Discovered at Kitt Peak on 2004-10-10 by Spacewatch.

Orbit

Orbit type: Main Belt

Note: WebGL enabled browser required.

epoch2024-03-31.0
epoch JD2460400.5
perihelion date2023-06-25.53668
perihelion JD2460121.03668
argument of perihelion (°)317.03978
ascending node (°)71.48233
inclination (°)4.62632
eccentricity0.1254024
perihelion distance (AU)2.4545246
Tisserand w.r.t. Jupiter3.3
ΔV w.r.t. Earth (km/sec)9.9
semimajor axis (AU)2.8064616
mean anomaly (°)58.58548
mean daily motion (°/day)0.20963570
aphelion distance (AU)3.158
period (years)4.7
P-vector [x]0.87652753
P-vector [y]0.46060723
P-vector [z]0.13978720
Q-vector [x]-0.47523696
Q-vector [y]0.78195567
Q-vector [z]0.40335488
absolute magnitude15.9
phase slope0.15
uncertainty0
referenceMPEC 2024-E152
observations used754
oppositions17
arc length (days)8451
first opposition used2001
last opposition used2024
residual rms (arc-secs)0.70
perturbers coarse indicatorM-v
perturbers precise indicator003Ek
first observation date used2001-01-19.0
last observation date used2024-03-10.0
computer nameMPCLINUX
JD of orbit computation2456700.166689
perihelion JD uncertainty (days)1.0669E-04
argument of perihelion uncertainty (°)7.7403E-05
ascending node uncertainty (°)7.4256E-05
inclination uncertainty (°)6.1292E-06
eccentricity uncertainty 8.1567E-08
perihelion distance uncertainty (AU)2.4803E-07
Minimum Orbit Intersection Distances (in AU)
for orbit epoch: 2460400.5, reference: E2024-EF2
Mercury2.11897
Venus1.73012
Earth1.46226
Mars0.99834
Jupiter2.27222
Saturn6.31228
Uranus15.3648
Neptune27.3644

Observations

770 total observations over interval: 2001 01 19.33198 – 2024 03 10.54721
These data are available for download (format description).

Date (UT) J2000 RA J2000 Dec Magn Location Ref
2001 01 19.33198 09 00 51.89 +23 01 55.9 19.3   704 – Lincoln Laboratory ETS, New Mexico MPS 163838
2001 01 19.34813 09 00 51.00 +23 02 00.3 19.9   704 – Lincoln Laboratory ETS, New Mexico MPS 163838
2001 01 19.37890 09 00 49.22 +23 02 09.4 19.6   704 – Lincoln Laboratory ETS, New Mexico MPS 163838
2001 01 19.39430 09 00 48.50 +23 02 14.6 19.6   704 – Lincoln Laboratory ETS, New Mexico MPS 163838
2002 04 09.24833 13 58 18.99 -06 58 22.2 20.4   644 – Palomar Mountain/NEAT MPS 163838
2002 04 09.31180 13 58 15.91 -06 58 07.5 20.1   644 – Palomar Mountain/NEAT MPS 163838
2002 04 09.37412 13 58 12.88 -06 57 53.0 20.1   644 – Palomar Mountain/NEAT MPS 163838
2004 10 10.45127 03 34 16.54 +15 25 25.8 19.6 V 691 – Steward Observatory, Kitt Peak-Spacewatch MPS 118660
2004 10 10.47904 03 34 15.83 +15 25 24.7 19.5 V 691 – Steward Observatory, Kitt Peak-Spacewatch MPS 118660
2004 10 10.50632 03 34 15.12 +15 25 23.4 19.6 V 691 – Steward Observatory, Kitt Peak-Spacewatch MPS 118660
2004 10 13.42691 03 32 57.62 +15 23 07.0 20.2 V 691 – Steward Observatory, Kitt Peak-Spacewatch MPS 118660
2004 10 13.45403 03 32 56.79 +15 23 05.5 20.1 V 691 – Steward Observatory, Kitt Peak-Spacewatch MPS 118660
2004 10 13.48075 03 32 55.95 +15 23 04.0 20.0 V 691 – Steward Observatory, Kitt Peak-Spacewatch MPS 118660
2004 10 14.30122 03 32 31.86 +15 22 19.4 20.4   704 – Lincoln Laboratory ETS, New Mexico MPS 118660
2004 10 14.31071 03 32 31.49 +15 22 19.6 20.1   704 – Lincoln Laboratory ETS, New Mexico MPS 118660
2004 10 14.32019 03 32 31.12 +15 22 18.5 19.8   704 – Lincoln Laboratory ETS, New Mexico MPS 118660
2004 10 20.24903 03 29 03.10 +15 15 49.7 19.5   704 – Lincoln Laboratory ETS, New Mexico MPS 118660
2004 10 20.25872 03 29 02.67 +15 15 49.0 20.0   704 – Lincoln Laboratory ETS, New Mexico MPS 118660
2004 10 20.26856 03 29 02.28 +15 15 48.5 20.0   704 – Lincoln Laboratory ETS, New Mexico MPS 118660
2004 10 20.27826 03 29 01.91 +15 15 47.2 20.2   704 – Lincoln Laboratory ETS, New Mexico MPS 118660
2004 10 23.29107 03 26 56.56 +15 11 48.2 19.3 V 691 – Steward Observatory, Kitt Peak-Spacewatch MPS 118660
2004 10 23.32904 03 26 54.84 +15 11 45.3 19.2 V 691 – Steward Observatory, Kitt Peak-Spacewatch MPS 118660
2004 10 23.36040 03 26 53.40 +15 11 42.5 19.3 V 691 – Steward Observatory, Kitt Peak-Spacewatch MPS 118660
2004 11 03.28886 03 17 53.86 +14 54 30.1 19.3 V 691 – Steward Observatory, Kitt Peak-Spacewatch MPS 118660
2004 11 03.31619 03 17 52.33 +14 54 27.5 19.3 V 691 – Steward Observatory, Kitt Peak-Spacewatch MPS 118660
2004 11 03.34377 03 17 50.77 +14 54 24.6 19.3 V 691 – Steward Observatory, Kitt Peak-Spacewatch MPS 118660
2004 11 04.35002 03 16 56.15 +14 52 40.8 18.2 R 703 – Catalina Sky Survey MPS 118660
2004 11 04.36050 03 16 55.58 +14 52 39.8 18.4 R 703 – Catalina Sky Survey MPS 118660
2004 11 04.37017 03 16 55.05 +14 52 38.5 18.3 R 703 – Catalina Sky Survey MPS 118660
2004 11 04.38005 03 16 54.44 +14 52 37.3 17.9 R 703 – Catalina Sky Survey MPS 118660
2004 11 07.25141 03 14 16.31 +14 47 42.2 18.8   704 – Lincoln Laboratory ETS, New Mexico MPS 119328
2004 11 07.26341 03 14 15.60 +14 47 41.6 19.4   704 – Lincoln Laboratory ETS, New Mexico MPS 119328
2004 11 07.28740 03 14 14.22 +14 47 38.3 19.2   704 – Lincoln Laboratory ETS, New Mexico MPS 119328
2004 11 07.29940 03 14 13.49 +14 47 37.3 18.9   704 – Lincoln Laboratory ETS, New Mexico MPS 119328
2004 11 12.28964 03 09 33.30 +14 39 08.7 19.4 R 703 – Catalina Sky Survey MPS 119328
2004 11 12.29624 03 09 33.05 +14 39 07.8 18.9 R 703 – Catalina Sky Survey MPS 119328
2004 11 12.30274 03 09 32.70 +14 39 07.3 19.0 R 703 – Catalina Sky Survey MPS 119328
2004 11 12.30927 03 09 32.27 +14 39 07.1 19.5 R 703 – Catalina Sky Survey MPS 119328
2004 11 18.19349 03 04 06.08 +14 29 56.9 19.0   704 – Lincoln Laboratory ETS, New Mexico MPS 119882
2004 11 18.20570 03 04 05.41 +14 29 56.3 19.0   704 – Lincoln Laboratory ETS, New Mexico MPS 119882
2004 11 18.21790 03 04 04.74 +14 29 55.8 19.2   704 – Lincoln Laboratory ETS, New Mexico MPS 119882
2004 11 18.23005 03 04 04.10 +14 29 55.2 19.0   704 – Lincoln Laboratory ETS, New Mexico MPS 119882
2004 11 19.25425 03 03 08.83 +14 28 27.0 18.7 R 703 – Catalina Sky Survey MPS 119882
2004 11 19.26250 03 03 08.41 +14 28 25.7 19.0 R 703 – Catalina Sky Survey MPS 119882
2004 11 19.27078 03 03 07.83 +14 28 26.3 17.6 R 703 – Catalina Sky Survey MPS 119882
2004 11 19.27910 03 03 07.40 +14 28 25.5 18.4 R 703 – Catalina Sky Survey MPS 119882
2004 12 09.28156 02 48 39.54 +14 15 46.4 18.7 R 703 – Catalina Sky Survey MPS 121180
2004 12 09.28957 02 48 39.18 +14 15 46.7 18.8 R 703 – Catalina Sky Survey MPS 121180
2004 12 09.29760 02 48 39.02 +14 15 47.6 18.6 R 703 – Catalina Sky Survey MPS 121180
2004 12 09.30564 02 48 38.83 +14 15 46.7 18.4 R 703 – Catalina Sky Survey MPS 121180
2004 12 13.10969 02 46 57.12 +14 17 45.5 19.5 V 691 – Steward Observatory, Kitt Peak-Spacewatch MPS 121764
2004 12 13.12733 02 46 56.69 +14 17 46.3 19.5 V 691 – Steward Observatory, Kitt Peak-Spacewatch MPS 121764
2004 12 13.14508 02 46 56.18 +14 17 47.2 19.3 V 691 – Steward Observatory, Kitt Peak-Spacewatch MPS 121764
2006 01 23.40253 10 59 05.00 +13 20 07.5 20.7 V 691 – Steward Observatory, Kitt Peak-Spacewatch MPS 161814
2006 01 23.41973 10 59 04.54 +13 20 12.0 20.7 V 691 – Steward Observatory, Kitt Peak-Spacewatch MPS 161814
2006 01 23.43700 10 59 04.10 +13 20 17.1 20.7 V 691 – Steward Observatory, Kitt Peak-Spacewatch MPS 161814
2006 01 26.41796 10 57 43.48 +13 34 06.8 20.5 V 703 – Catalina Sky Survey MPS 161814
2006 01 26.42439 10 57 43.34 +13 34 08.4 21.3 V 703 – Catalina Sky Survey MPS 161814
2006 01 26.43082 10 57 43.02 +13 34 11.2 20.3 V 703 – Catalina Sky Survey MPS 161814
2006 01 26.43726 10 57 42.91 +13 34 13.5 20.3 V 703 – Catalina Sky Survey MPS 161814
2006 02 01.38241 10 54 27.71 +14 04 10.9 21.4 V 691 – Steward Observatory, Kitt Peak-Spacewatch MPS 161814
2006 02 01.39973 10 54 27.09 +14 04 15.7 20.3 V 691 – Steward Observatory, Kitt Peak-Spacewatch MPS 161814
2006 02 01.41699 10 54 26.41 +14 04 21.1 20.3 V 691 – Steward Observatory, Kitt Peak-Spacewatch MPS 161814
2006 02 20.17440 10 40 22.79 +15 47 22.1   691 – Steward Observatory, Kitt Peak-Spacewatch MPS 163838
2006 02 20.19165 10 40 21.92 +15 47 27.7   691 – Steward Observatory, Kitt Peak-Spacewatch MPS 163838
2006 02 20.20891 10 40 20.99 +15 47 33.4   691 – Steward Observatory, Kitt Peak-Spacewatch MPS 163838
2006 02 24.17109 10 36 57.79 +16 08 22.5 20.3 V 691 – Steward Observatory, Kitt Peak-Spacewatch MPS 163838
2006 02 24.18839 10 36 56.87 +16 08 28.1 20.3 V 691 – Steward Observatory, Kitt Peak-Spacewatch MPS 163838
2006 02 24.20568 10 36 55.97 +16 08 33.3 20.3 V 691 – Steward Observatory, Kitt Peak-Spacewatch MPS 163838
2007 04 14.42250 15 32 01.03 -16 06 05.0 20.8 V 691 – Steward Observatory, Kitt Peak-Spacewatch MPS 206918
2007 04 14.44072 15 32 00.37 -16 06 02.9 20.7 V 691 – Steward Observatory, Kitt Peak-Spacewatch MPS 206918
2007 04 14.45840 15 31 59.71 -16 06 01.7 20.9 V 691 – Steward Observatory, Kitt Peak-Spacewatch MPS 206918
2007 04 18.39300 15 29 32.54 -15 59 06.5 21.3 V 691 – Steward Observatory, Kitt Peak-Spacewatch MPS 206918
2007 04 18.41068 15 29 31.82 -15 59 04.8 21.7 V 691 – Steward Observatory, Kitt Peak-Spacewatch MPS 206918
2007 04 18.42835 15 29 31.05 -15 59 02.7 21.2 V 691 – Steward Observatory, Kitt Peak-Spacewatch MPS 206918
2007 04 18.43589 15 29 30.79 -15 59 02.2 21.4 V 691 – Steward Observatory, Kitt Peak-Spacewatch MPS 206918
2007 04 18.45350 15 29 30.06 -15 59 00.7 21.3 V 691 – Steward Observatory, Kitt Peak-Spacewatch MPS 206918
2007 04 18.47112 15 29 29.32 -15 58 58.2 21.4 V 691 – Steward Observatory, Kitt Peak-Spacewatch MPS 206918
2008 07 28.69322 21 41 35.55 -20 47 46.5 18.6 V E12 – Siding Spring Survey MPS 252932
2008 07 28.70258 21 41 35.08 -20 47 47.7 18.6 V E12 – Siding Spring Survey MPS 252932
2008 07 28.71193 21 41 34.69 -20 47 51.1 19.1 V E12 – Siding Spring Survey MPS 252932
2008 07 28.72137 21 41 34.11 -20 47 54.3 19.8 V E12 – Siding Spring Survey MPS 252932
2009 11 16.45416 06 05 31.23 +24 10 02.7 19.7 V 691 – Steward Observatory, Kitt Peak-Spacewatch MPS 303277
